Skip Page Navigation
NASA JPL Caltech
NASA Logo - Jet Propulsion Laboratory + View the NASA Portal
+ Center for Near-Earth Object Studies
JPL Home Earth Solar System Stars & Galaxies Technology
JPL Solar System Dynamics
BODIES ORBITS EPHEMERIDES TOOLS PHYSICAL DATA DISCOVERY FAQ SITE MAP
IMPORTANT: The SSD Announcement email list is now available. Major changes are coming in the near future, including possible hostname and/or URL changes. To be notified of such changes, subscribe to this email list.

Please visit this page for more details.


JPL Small-Body Database Browser
Search: [ help ]  
382312 (2013 RX32)
Classification: Main-belt Asteroid          SPK-ID: 2382312
Ephemeris | Orbit Diagram | Orbital Elements | Mission Design | Physical Parameters | Discovery Circumstances | Close-Approach Data ]

[ show orbit diagram ]
Orbital Elements at Epoch 2459000.5 (2020-May-31.0) TDB
Reference: JPL 22 (heliocentric ecliptic J2000)
 Element Value Uncertainty (1-sigma)   Units 
e .2464021384678393 5.6267e-08  
a 2.445390961039133 2.4465e-08 au
q 1.842841398849166 1.3691e-07 au
i 6.670849802338105 5.9658e-06 deg
node 19.29496698565204 3.5902e-05 deg
peri 329.6509660579205 3.6987e-05 deg
M 271.0166281305591 1.0709e-05 deg
tp 2459345.744873511999
(2021-May-11.24487351)
4.4563e-05 TDB
period 1396.757077790656
3.82
2.0961e-05
5.739e-08
d
yr
n .2577398788409478 3.8678e-09 deg/d
Q 3.0479405232291 3.0493e-08 au
  Orbit Determination Parameters
   # obs. used (total)      256  
   data-arc span      4412 days (12.08 yr)  
   first obs. used      2008-03-26  
   last obs. used      2020-04-24  
   planetary ephem.      DE431  
   SB-pert. ephem.      SB431-N16  
   condition code      0  
   norm. resid. RMS      .61916  
   source      ORB  
   producer      Otto Matic  
   solution date      2020-May-22 00:42:12  

Additional Information
 Earth MOID = .8407 au 
 Jupiter MOID = 2.39094 au 
 T_jup = 3.448 
[ show covariance matrix ]

Ephemeris | Orbit Diagram | Orbital Elements | Mission Design | Physical Parameters | Discovery Circumstances | Close-Approach Data ]

Physical Parameter Table
Parameter Symbol Value Units Sigma Reference Notes
absolute magnitude H 17.0   n/a MPO434369  

382312 (2013 RX32)          Discovered 2008-Mar-26 by Mt. Lemmon Survey at Mount Lemmon
Reference: Last Updated: 2013-12-19

[ show close-approach data ]
Ephemeris | Orbit Diagram | Orbital Elements | Mission Design | Physical Parameters | Discovery Circumstances | Close-Approach Data ]
ABOUT SSD CREDITS/AWARDS PRIVACY/COPYRIGHT GLOSSARY LINKS
FirstGov 2020-May-28 08:56 UT
(server date/time)  
NASA Home Page
Site Manager:   Ryan S. Park
Webmaster  Alan B. Chamberlin